Weather in Fréjus

France     43°25′55″N   6°43′55″E
temp.,
°C
wind,
m/s
gust,
m/s
humid.,
%
clouds,
%
prec.,
mm/h
press.,
hPa
HPBL,
m
26 september, sun
sun2623:00+19nne12913 0.2 102068
02:00+19ne238958 0.3 101980
05:00+18n12895 0.6 101958
08:00+18n228732 2.1 101748
11:00+23n027078 3.3 1018385
14:00+26se325812 3.6 10171131
17:00+26s126119 1.1 1016949
20:00+20e129355 1.4 101764
27 september, mon
mon2723:00+20n1195100 0.4 101745
02:00+19nnw119143 0.4 101728
05:00+17nnw229099 0.0 101627
08:00+18nnw1188100 0.0 101732
11:00+22s1172100 0.0 1017453
14:00+27ssw3538100 0.0 10161434
17:00+26nne154498 0.0 1015990
20:00+20ene22775 0.0 101653
28 september, tue
tue2823:00+18n11799 0.0 101732
02:00+18nnw226842 0.0 101827
05:00+17nw226343 0.0 101724
08:00+18nnw116242 0.0 101824
11:00+24s115254 0.0 1019450
14:00+25sse3357100 0.0 1018982
17:00+23sse2262100 0.0 1017573
20:00+20wsw1177100 0.0 101735
29 september, wed
wed2923:00+19wnw226775 0.0 101761
02:00+16wnw23690 0.0 101666
05:00+15nw23735 0.0 101654
08:00+16nw22690 0.0 101742
11:00+22wsw215487 0.0 1018606
14:00+25sw4446100 0.0 10171235
17:00+25ssw443594 0.0 10161012
20:00+20nne12470 0.0 101819
30 september, thu
thu3023:00+18nne22700 0.0 102038
02:00+17nw22680 0.0 102028
05:00+16nw22700 0.0 102026
08:00+16nnw12695 0.0 102127
11:00+23sse114756 0.0 1022634
14:00+25sse42417 0.0 10211289
17:00+23sse335317 0.0 1021715
20:00+18s018099 0.0 102171